星链-3757 (STARLINK-3757 )

导读

STARLINK-3757是美国太空探索技术公司(SpaceX)Starlink星链星座的成员卫星,由美国于2022年5月13日发射入轨,属于星链项目第二批组网卫星。星链项目旨在构建全球卫星互联网星座,该卫星主要为全球偏远地区、海洋上空等区域提供低延迟宽带互联网接入服务,依托近地轨道部署保障通信传输效率。

基本信息
目录编号:
52539
目录名称:
STARLINK-3757
国际标识:
2022-051G
轨道中心:
EARTH
卫星名称:
星链-3757
卫星全名:
星链-3757 (STARLINK-3757 )
卫星状态:
在轨 (已飞行1575 天)
发射日期:
2022-05-13 UTC
国别 :
美国 (US)
星等 :
--
轨道信息
数据来源 国际轨道数据
星历时间: 2026-09-04T03:39:33+0800
9小时前
查看轨道信息
半长轴: 6843.376km
偏心率: 0.0001074
轨道倾角: 53.161°
近地点辐角 80.009°
升交点赤经 39.800°
平近点角 280.103°
近地点: 464.504km
远地点: 465.974km
周期: 93.900分钟
每日圈数: 15.335475
详细信息
固有亮度:
5
最大亮度:
2.5
卫星平台:
Starlink v1.5
覆盖范围:
全球
运营商:
太空探索技术公司
运营商所在国:
美国
制造商(研发单位):
太空探索技术公司
制造商所在国:
美国
使用方式:
暂无
卫星简介
星链(Starlink)计划是由太空探索技术公司(SpaceX)提出的一个巨型低轨卫星互联网星座项目,计划在2019年至2024年间在太空搭建由约1.2万颗卫星组成的“星链”网络,其中1584颗将部署在地球上空550千米处的近地轨道,并从2020年开始工作。该卫星仍在工作。
2D轨道图
3D轨道图
轨道高度分析图
轨道倾角分析图
轨道综合分析图
查看轨道综合分析图
交会数据列表
事件ID 空间交会对象 最接近时刻(TCA) 交会距离 交会风险概率(CRP) 交会风险指数(CRI) 操作
CDM_260904-172205-253906-063022
2026-09-04T
17:22:21+0000
0.947 km
远距离
3.145477E-5 中风险 0.65
CDM_260830-122505-253905-631824
2026-08-30T
12:25:26+0000
2.308 km
极远距离
2.046402E-6 低风险 0.41
CDM_260905-050805-253906-802621
2026-09-05T
05:08:40+0000
2.655 km
极远距离
1.574295E-6 低风险 0.39
CDM_260905-004705-253906-870921
2026-09-05T
00:47:42+0000
2.679 km
极远距离
1.270452E-6 低风险 0.37
CDM_260905-074705-253905-794121
2026-09-05T
07:47:08+0000
2.825 km
极远距离
1.236981E-6 低风险 0.37
CDM_260904-152505-253906-009722
2026-09-04T
15:25:11+0000
2.764 km
极远距离
1.198126E-6 低风险 0.37
CDM_260904-130405-253906-009722
2026-09-04T
13:04:27+0000
2.971 km
极远距离
1.092646E-6 低风险 0.36
CDM_260905-024405-253906-770721
2026-09-05T
02:44:53+0000
2.639 km
极远距离
1.043917E-6 低风险 0.35
CDM_260904-065305-253905-900721
2026-09-04T
06:53:56+0000
2.811 km
极远距离
9.547561E-7 极低风险 0.35
CDM_260903-174505-253906-231421
2026-09-03T
17:45:46+0000
2.641 km
极远距离
8.21168E-7 极低风险 0.33